Time,TemperatureF,DewpointF,PressureIn,WindDirection,WindDirectionDegrees,WindSpeedMPH,WindSpeedGustMPH,Humidity,HourlyPrecipIn,Conditions,Clouds,dailyrainin,SoftwareType,DateUTC
2013-06-16 00:08:00,67.8,50.5,30.12,NW,317,1.0,1.0,54,0.00,,,0.00,Wunderground v.1.15,2013-06-16 04:08:00,
2013-06-16 00:13:00,67.6,50.9,30.12,NW,317,1.0,6.0,55,0.00,,,0.00,Wunderground v.1.15,2013-06-16 04:13:00,
2013-06-16 00:32:00,67.6,50.4,30.11,NW,317,0.0,6.0,54,0.00,,,0.00,Wunderground v.1.15,2013-06-16 04:32:00,
2013-06-16 00:47:00,67.9,50.6,30.10,NW,317,0.0,6.0,54,0.00,,,0.00,Wunderground v.1.15,2013-06-16 04:47:00,
2013-06-16 00:57:00,67.4,51.2,30.10,NW,317,1.0,4.0,56,0.00,,,0.00,Wunderground v.1.15,2013-06-16 04:57:00,
2013-06-16 01:07:00,67.3,51.1,30.10,NW,317,1.0,1.0,56,0.00,,,0.00,Wunderground v.1.15,2013-06-16 05:07:00,
2013-06-16 01:17:00,67.6,51.8,30.10,NW,317,1.0,1.0,57,0.00,,,0.00,Wunderground v.1.15,2013-06-16 05:17:00,
2013-06-16 01:22:00,67.6,51.8,30.09,NW,317,1.0,4.0,57,0.00,,,0.00,Wunderground v.1.15,2013-06-16 05:22:00,
2013-06-16 01:32:00,67.3,51.5,30.09,NW,317,0.0,4.0,57,0.00,,,0.00,Wunderground v.1.15,2013-06-16 05:32:00,
2013-06-16 01:42:00,66.4,51.6,30.09,NW,317,0.0,4.0,59,0.00,,,0.00,Wunderground v.1.15,2013-06-16 05:42:00,
2013-06-16 01:57:00,66.6,52.3,30.09,NW,317,0.0,4.0,60,0.00,,,0.00,Wunderground v.1.15,2013-06-16 05:57:00,
2013-06-16 02:07:00,66.8,52.5,30.09,NW,317,0.0,4.0,60,0.00,,,0.00,Wunderground v.1.15,2013-06-16 06:07:00,
2013-06-16 02:22:00,65.3,52.8,30.09,NW,317,0.0,4.0,64,0.00,,,0.00,Wunderground v.1.15,2013-06-16 06:22:00,
2013-06-16 02:32:00,65.2,52.7,30.09,NW,317,0.0,4.0,64,0.00,,,0.00,Wunderground v.1.15,2013-06-16 06:32:00,
2013-06-16 02:37:00,65.2,52.7,30.09,NW,317,0.0,4.0,64,0.00,,,0.00,Wunderground v.1.15,2013-06-16 06:37:00,
2013-06-16 02:47:00,64.8,52.8,30.09,NW,317,0.0,4.0,65,0.00,,,0.00,Wunderground v.1.15,2013-06-16 06:47:00,
2013-06-16 02:57:00,65.5,52.6,30.08,NW,317,0.0,4.0,63,0.00,,,0.00,Wunderground v.1.15,2013-06-16 06:57:00,
2013-06-16 03:07:00,66.0,52.6,30.08,NW,317,0.0,4.0,62,0.00,,,0.00,Wunderground v.1.15,2013-06-16 07:07:00,
2013-06-16 03:17:00,66.0,52.6,30.08,NW,317,0.0,4.0,62,0.00,,,0.00,Wunderground v.1.15,2013-06-16 07:17:00,
2013-06-16 03:22:00,65.8,53.3,30.08,NW,317,0.0,4.0,64,0.00,,,0.00,Wunderground v.1.15,2013-06-16 07:22:00,
2013-06-16 03:32:00,64.5,52.9,30.08,NW,317,0.0,4.0,66,0.00,,,0.00,Wunderground v.1.15,2013-06-16 07:32:00,
2013-06-16 03:47:00,65.3,52.4,30.07,NW,317,0.0,4.0,63,0.00,,,0.00,Wunderground v.1.15,2013-06-16 07:47:00,
2013-06-16 03:57:00,65.5,53.0,30.07,NW,317,0.0,3.0,64,0.00,,,0.00,Wunderground v.1.15,2013-06-16 07:57:00,
2013-06-16 04:07:00,65.2,53.1,30.06,NW,317,0.0,3.0,65,0.00,,,0.00,Wunderground v.1.15,2013-06-16 08:07:00,
2013-06-16 04:17:00,65.0,52.9,30.06,NW,317,0.0,3.0,65,0.00,,,0.00,Wunderground v.1.15,2013-06-16 08:17:00,
2013-06-16 04:22:00,64.8,52.3,30.07,NW,317,0.0,3.0,64,0.00,,,0.00,Wunderground v.1.15,2013-06-16 08:22:00,
2013-06-16 04:32:00,65.0,52.5,30.07,NW,317,0.0,3.0,64,0.00,,,0.00,Wunderground v.1.15,2013-06-16 08:32:00,
2013-06-16 04:47:00,65.3,53.2,30.07,NW,317,0.0,3.0,65,0.00,,,0.00,Wunderground v.1.15,2013-06-16 08:47:00,
2013-06-16 04:57:00,65.0,53.4,30.07,NW,317,0.0,2.0,66,0.00,,,0.00,Wunderground v.1.15,2013-06-16 08:57:00,
2013-06-16 05:07:00,64.8,53.6,30.08,NW,317,0.0,2.0,67,0.00,,,0.00,Wunderground v.1.15,2013-06-16 09:07:00,
2013-06-16 05:17:00,65.2,54.0,30.08,NW,317,0.0,2.0,67,0.00,,,0.00,Wunderground v.1.15,2013-06-16 09:17:00,
2013-06-16 05:22:00,65.0,53.4,30.07,NW,317,0.0,2.0,66,0.00,,,0.00,Wunderground v.1.15,2013-06-16 09:22:00,
2013-06-16 05:32:00,64.8,54.4,30.07,NW,317,0.0,2.0,69,0.00,,,0.00,Wunderground v.1.15,2013-06-16 09:32:00,
2013-06-16 05:42:00,64.5,54.9,30.08,NNE,23,0.0,2.0,71,0.00,,,0.00,Wunderground v.1.15,2013-06-16 09:42:00,
2013-06-16 05:52:00,63.4,55.7,30.07,NNE,23,1.0,4.0,76,0.00,,,0.00,Wunderground v.1.15,2013-06-16 09:52:00,
2013-06-16 06:17:00,62.3,55.0,30.08,NNE,23,0.0,4.0,77,0.00,,,0.00,Wunderground v.1.15,2013-06-16 10:17:00,
2013-06-16 06:27:00,62.6,54.6,30.08,NNE,23,0.0,4.0,75,0.00,,,0.00,Wunderground v.1.15,2013-06-16 10:27:00,
2013-06-16 06:42:00,62.6,55.6,30.08,NNE,23,0.0,4.0,78,0.00,,,0.00,Wunderground v.1.15,2013-06-16 10:42:00,
2013-06-16 06:52:00,62.4,55.1,30.08,NNE,23,0.0,4.0,77,0.00,,,0.00,Wunderground v.1.15,2013-06-16 10:52:00,
2013-06-16 07:12:00,63.5,55.1,30.08,NNE,23,0.0,4.0,74,0.00,,,0.00,Wunderground v.1.15,2013-06-16 11:12:00,
2013-06-16 07:22:00,64.3,55.5,30.07,NNE,23,0.0,4.0,73,0.00,,,0.00,Wunderground v.1.15,2013-06-16 11:22:00,
2013-06-16 07:32:00,64.8,56.7,30.07,NNE,23,0.0,4.0,75,0.00,,,0.00,Wunderground v.1.15,2013-06-16 11:32:00,
2013-06-16 07:47:00,64.2,57.9,30.07,NNE,23,1.0,4.0,80,0.00,,,0.00,Wunderground v.1.15,2013-06-16 11:47:00,
2013-06-16 07:57:00,63.1,57.5,30.07,NNE,23,1.0,1.0,82,0.00,,,0.00,Wunderground v.1.15,2013-06-16 11:57:00,
2013-06-16 08:07:00,63.1,56.5,30.07,NNE,23,0.0,4.0,79,0.00,,,0.00,Wunderground v.1.15,2013-06-16 12:07:00,
2013-06-16 08:17:00,64.0,57.7,30.07,NNE,23,0.0,4.0,80,0.00,,,0.00,Wunderground v.1.15,2013-06-16 12:17:00,
2013-06-16 08:32:00,66.1,59.7,30.07,NW,315,1.0,4.0,80,0.00,,,0.00,Wunderground v.1.15,2013-06-16 12:32:00,
2013-06-16 08:42:00,67.4,61.4,30.06,NW,315,0.0,4.0,81,0.00,,,0.00,Wunderground v.1.15,2013-06-16 12:42:00,
2013-06-16 08:57:00,68.4,60.2,30.06,NW,315,1.0,13.0,75,0.00,,,0.00,Wunderground v.1.15,2013-06-16 12:57:00,
2013-06-16 09:07:00,67.4,59.6,30.06,NW,315,1.0,1.0,76,0.00,,,0.00,Wunderground v.1.15,2013-06-16 13:07:00,
2013-06-16 09:17:00,67.3,59.1,30.06,NW,315,0.0,13.0,75,0.00,,,0.00,Wunderground v.1.15,2013-06-16 13:17:00,
2013-06-16 09:32:00,68.4,59.4,30.06,NW,315,0.0,13.0,73,0.00,,,0.00,Wunderground v.1.15,2013-06-16 13:32:00,
2013-06-16 09:42:00,69.6,59.4,30.05,NW,315,0.0,13.0,70,0.00,,,0.00,Wunderground v.1.15,2013-06-16 13:42:00,
2013-06-16 09:47:00,70.1,61.0,30.05,NW,315,1.0,13.0,73,0.00,,,0.00,Wunderground v.1.15,2013-06-16 13:47:00,
2013-06-16 09:57:00,70.9,59.8,30.05,West,281,2.0,10.0,68,0.00,,,0.00,Wunderground v.1.15,2013-06-16 13:57:00,
2013-06-16 10:07:00,70.9,59.8,30.04,WNW,300,7.0,7.0,68,0.00,,,0.00,Wunderground v.1.15,2013-06-16 14:07:00,
2013-06-16 10:17:00,70.4,60.1,30.04,NW,313,6.0,7.0,70,0.00,,,0.00,Wunderground v.1.15,2013-06-16 14:17:00,
2013-06-16 10:27:00,69.9,59.3,30.04,NW,313,8.0,12.0,69,0.00,,,0.00,Wunderground v.1.15,2013-06-16 14:27:00,
2013-06-16 10:32:00,69.8,59.6,30.04,WNW,286,8.0,12.0,70,0.00,,,0.00,Wunderground v.1.15,2013-06-16 14:32:00,
2013-06-16 10:42:00,69.8,59.6,30.03,NNW,331,7.0,11.0,70,0.00,,,0.00,Wunderground v.1.15,2013-06-16 14:42:00,
2013-06-16 10:47:00,69.6,60.2,30.03,WNW,296,5.0,11.0,72,0.00,,,0.00,Wunderground v.1.15,2013-06-16 14:47:00,
2013-06-16 10:57:00,69.8,60.4,30.03,NW,313,4.0,22.0,72,0.00,,,0.00,Wunderground v.1.15,2013-06-16 14:57:00,
2013-06-16 11:07:00,69.9,60.1,30.03,WNW,293,6.0,6.0,71,0.00,,,0.00,Wunderground v.1.15,2013-06-16 15:07:00,
2013-06-16 11:17:00,70.1,61.0,30.03,WNW,296,6.0,6.0,73,0.00,,,0.00,Wunderground v.1.15,2013-06-16 15:17:00,
2013-06-16 11:22:00,70.1,60.3,30.03,NW,309,5.0,17.0,71,0.00,,,0.00,Wunderground v.1.15,2013-06-16 15:22:00,
2013-06-16 11:32:00,69.8,60.0,30.03,WNW,294,8.0,8.0,71,0.00,,,0.00,Wunderground v.1.15,2013-06-16 15:32:00,
2013-06-16 11:37:00,69.4,60.4,30.02,WNW,301,6.0,22.0,73,0.00,,,0.00,Wunderground v.1.15,2013-06-16 15:37:00,
2013-06-16 11:47:00,69.3,60.3,30.02,WNW,302,5.0,22.0,73,0.00,,,0.00,Wunderground v.1.15,2013-06-16 15:47:00,
2013-06-16 11:57:00,69.4,60.4,30.02,WNW,291,6.0,6.0,73,0.00,,,0.00,Wunderground v.1.15,2013-06-16 15:57:00,
2013-06-16 12:07:00,69.9,59.7,30.02,WNW,298,6.0,23.0,70,0.00,,,0.00,Wunderground v.1.15,2013-06-16 16:07:00,
2013-06-16 12:22:00,70.9,60.6,30.02,NW,304,5.0,5.0,70,0.00,,,0.00,Wunderground v.1.15,2013-06-16 16:22:00,
2013-06-16 12:37:00,71.8,60.7,30.01,WNW,292,4.0,23.0,68,0.00,,,0.00,Wunderground v.1.15,2013-06-16 16:37:00,
2013-06-16 12:47:00,72.1,58.8,30.01,WNW,302,7.0,23.0,63,0.00,,,0.00,Wunderground v.1.15,2013-06-16 16:47:00,
2013-06-16 12:57:00,72.0,59.6,30.01,West,269,8.0,8.0,65,0.00,,,0.00,Wunderground v.1.15,2013-06-16 16:57:00,
2013-06-16 13:07:00,72.3,60.7,30.02,West,271,8.0,19.0,67,0.00,,,0.00,Wunderground v.1.15,2013-06-16 17:07:00,
2013-06-16 13:17:00,71.8,59.8,30.02,NW,321,9.0,19.0,66,0.00,,,0.00,Wunderground v.1.15,2013-06-16 17:17:00,
2013-06-16 13:32:00,72.1,60.1,30.02,WNW,290,7.0,7.0,66,0.00,,,0.00,Wunderground v.1.15,2013-06-16 17:32:00,
2013-06-16 13:42:00,72.7,61.1,30.01,NW,304,6.0,19.0,67,0.00,,,0.00,Wunderground v.1.15,2013-06-16 17:42:00,
2013-06-16 13:52:00,73.0,61.4,30.00,West,266,5.0,19.0,67,0.00,,,0.00,Wunderground v.1.15,2013-06-16 17:52:00,
2013-06-16 13:57:00,73.2,61.6,30.00,WNW,285,5.0,19.0,67,0.00,,,0.00,Wunderground v.1.15,2013-06-16 17:57:00,
2013-06-16 14:22:00,75.1,61.2,29.98,West,276,5.0,5.0,62,0.00,,,0.00,Wunderground v.1.15,2013-06-16 18:22:00,
2013-06-16 14:37:00,75.3,60.5,29.98,West,277,6.0,6.0,60,0.00,,,0.00,Wunderground v.1.15,2013-06-16 18:37:00,
2013-06-16 14:47:00,76.0,62.0,29.98,NW,315,4.0,19.0,62,0.00,,,0.00,Wunderground v.1.15,2013-06-16 18:47:00,
2013-06-16 14:57:00,76.3,61.4,29.98,NW,314,4.0,16.0,60,0.00,,,0.00,Wunderground v.1.15,2013-06-16 18:57:00,
2013-06-16 15:07:00,76.1,61.2,29.98,WNW,286,6.0,16.0,60,0.00,,,0.00,Wunderground v.1.15,2013-06-16 19:07:00,
2013-06-16 15:27:00,74.6,60.3,29.98,WNW,303,11.0,11.0,61,0.00,,,0.00,Wunderground v.1.15,2013-06-16 19:27:00,
2013-06-16 15:42:00,76.0,61.6,29.98,WNW,291,13.0,16.0,61,0.00,,,0.00,Wunderground v.1.15,2013-06-16 19:42:00,
2013-06-16 16:07:00,75.4,61.5,29.98,NNW,331,10.0,30.0,62,0.00,,,0.00,Wunderground v.1.15,2013-06-16 20:07:00,
2013-06-16 16:13:00,74.6,58.4,29.98,WNW,283,9.0,30.0,57,0.00,,,0.00,Wunderground v.1.15,2013-06-16 20:13:00,
2013-06-16 16:22:00,73.7,60.3,29.98,NNW,331,14.0,14.0,63,0.00,,,0.00,Wunderground v.1.15,2013-06-16 20:22:00,
2013-06-16 16:37:00,73.5,60.1,29.99,West,265,12.0,12.0,63,0.00,,,0.00,Wunderground v.1.15,2013-06-16 20:37:00,
2013-06-16 16:47:00,73.2,60.3,29.99,NW,312,14.0,30.0,64,0.00,,,0.00,Wunderground v.1.15,2013-06-16 20:47:00,
2013-06-16 17:23:00,73.0,59.7,30.00,NW,317,11.0,32.0,63,0.00,,,0.00,Wunderground v.1.15,2013-06-16 21:23:00,
2013-06-16 17:33:00,72.5,59.6,30.00,NW,325,12.0,12.0,64,0.00,,,0.00,Wunderground v.1.15,2013-06-16 21:33:00,
2013-06-16 18:08:00,73.5,58.8,29.99,WNW,295,13.0,36.0,60,0.00,,,0.00,Wunderground v.1.15,2013-06-16 22:08:00,
2013-06-16 18:13:00,73.5,59.7,29.99,WNW,284,13.0,36.0,62,0.00,,,0.00,Wunderground v.1.15,2013-06-16 22:13:00,
2013-06-16 18:23:00,74.0,59.7,30.00,WNW,288,8.0,36.0,61,0.00,,,0.00,Wunderground v.1.15,2013-06-16 22:23:00,
2013-06-16 18:32:00,74.2,59.9,30.00,West,279,12.0,12.0,61,0.00,,,0.00,Wunderground v.1.15,2013-06-16 22:32:00,
2013-06-16 18:38:00,74.4,60.1,30.00,West,267,10.0,36.0,61,0.00,,,0.00,Wunderground v.1.15,2013-06-16 22:38:00,
2013-06-16 18:48:00,74.2,59.4,30.00,NNW,329,8.0,36.0,60,0.00,,,0.00,Wunderground v.1.15,2013-06-16 22:48:00,
2013-06-16 18:57:00,72.3,59.4,30.00,West,273,10.0,10.0,64,0.00,,,0.00,Wunderground v.1.15,2013-06-16 22:57:00,
2013-06-16 19:18:00,71.3,59.8,30.01,WNW,293,5.0,34.0,67,0.00,,,0.00,Wunderground v.1.15,2013-06-16 23:18:00,
2013-06-16 19:28:00,71.5,59.1,30.01,NW,315,9.0,9.0,65,0.00,,,0.00,Wunderground v.1.15,2013-06-16 23:28:00,
2013-06-16 19:33:00,72.0,59.6,30.01,West,281,7.0,34.0,65,0.00,,,0.00,Wunderground v.1.15,2013-06-16 23:33:00,
2013-06-16 19:43:00,72.1,59.2,30.01,WNW,302,10.0,10.0,64,0.00,,,0.00,Wunderground v.1.15,2013-06-16 23:43:00,
2013-06-16 19:53:00,72.0,60.0,30.02,WNW,290,6.0,24.0,66,0.00,,,0.00,Wunderground v.1.15,2013-06-16 23:53:00,
2013-06-16 20:18:00,70.6,59.1,30.02,WNW,293,7.0,7.0,67,0.00,,,0.00,Wunderground v.1.15,2013-06-17 00:18:00,
2013-06-16 20:28:00,69.9,59.3,30.02,NW,314,4.0,24.0,69,0.00,,,0.00,Wunderground v.1.15,2013-06-17 00:28:00,
2013-06-16 20:38:00,69.4,59.2,30.03,West,275,4.0,4.0,70,0.00,,,0.00,Wunderground v.1.15,2013-06-17 00:38:00,
2013-06-16 20:53:00,68.9,59.1,30.03,WNW,292,3.0,3.0,71,0.00,,,0.00,Wunderground v.1.15,2013-06-17 00:53:00,
2013-06-16 21:13:00,68.6,59.6,30.03,WNW,300,5.0,24.0,73,0.00,,,0.00,Wunderground v.1.15,2013-06-17 01:13:00,
2013-06-16 21:23:00,68.6,59.6,30.02,WNW,296,5.0,24.0,73,0.00,,,0.00,Wunderground v.1.15,2013-06-17 01:23:00,
2013-06-16 21:28:00,68.4,59.4,30.02,West,281,5.0,24.0,73,0.00,,,0.00,Wunderground v.1.15,2013-06-17 01:28:00,
2013-06-16 21:38:00,68.4,59.4,30.03,WNW,294,6.0,6.0,73,0.00,,,0.00,Wunderground v.1.15,2013-06-17 01:38:00,
2013-06-16 21:48:00,68.1,59.5,30.03,WNW,292,2.0,24.0,74,0.00,,,0.00,Wunderground v.1.15,2013-06-17 01:48:00,
2013-06-16 22:13:00,67.8,59.2,30.05,NW,309,1.0,1.0,74,0.00,,,0.00,Wunderground v.1.15,2013-06-17 02:13:00,
2013-06-16 22:23:00,67.8,59.6,30.04,NW,317,1.0,16.0,75,0.00,,,0.00,Wunderground v.1.15,2013-06-17 02:23:00,
2013-06-16 22:33:00,67.9,59.7,30.04,NW,317,1.0,1.0,75,0.00,,,0.00,Wunderground v.1.15,2013-06-17 02:33:00,
2013-06-16 22:48:00,67.8,60.0,30.04,NW,317,0.0,16.0,76,0.00,,,0.00,Wunderground v.1.15,2013-06-17 02:48:00,
2013-06-16 22:58:00,68.1,59.9,30.04,WNW,295,1.0,10.0,75,0.00,,,0.00,Wunderground v.1.15,2013-06-17 02:58:00,
2013-06-16 23:13:00,67.9,59.3,30.04,WNW,295,1.0,1.0,74,0.00,,,0.00,Wunderground v.1.15,2013-06-17 03:13:00,
2013-06-16 23:32:00,68.3,58.9,30.04,WNW,286,2.0,2.0,72,0.00,,,0.00,Wunderground v.1.15,2013-06-17 03:32:00,
2013-06-16 23:42:00,68.1,58.7,30.04,WNW,289,1.0,1.0,72,0.00,,,0.00,Wunderground v.1.15,2013-06-17 03:42:00,
2013-06-16 23:47:00,68.1,58.7,30.04,WNW,289,1.0,4.0,72,0.00,,,0.00,Wunderground v.1.15,2013-06-17 03:47:00,
2013-06-16 23:57:00,67.8,58.8,30.04,WNW,293,3.0,3.0,73,0.00,,,0.00,Wunderground v.1.15,2013-06-17 03:57:00,